RH
95 98 100 94 89 79 59 62 62 61 69 78 80 74 68 60 55 56 53 51 47 47 44 30 39 61 75 76 76 78 82 82 83 84 77 74 73 63 67 71 70 68 69 74
98 99 83 73 68 68 57 63 63 59 60 60 74 74 62 59 57 54 53 52 50 44 45 38 32 34 50 73 73 72 77 77 75 70 73 70 69 69 66 69 70 73 75 76
91 96 77 76 68 57 64 61 80 62 75 75 70 72 60 53 56 54 53 50 49 47 45 42 38 33 36 60 76 71 72 72 71 70 70 73 72 73 71 70 74 77 74 69
98 80 78 77 67 61 67 58 74 71 72 95 63 76 57 52 50 56 57 54 50 46 44 42 37 34 30 47 60 70 73 71 69 71 73 69 64 68 75 72 73 82 78 80
99 93 89 84 69 61 63 59 72 78 67 73 62 68 51 46 52 48 50 51 48 45 43 44 39 34 29 37 51 52 66 81 77 79 68 73 71 74 78 85 87 82 83 81
94 84 87 86 72 68 72 61 58 65 67 79 66 67 60 53 42 45 45 46 43 43 42 42 36 33 32 34 41 46 49 60 75 80 82 81 75 67 71 70 69 61 50 52
83 90 79 74 67 73 80 66 95 90 87 79 50 62 58 35 35 37 39 44 42 44 43 44 50 46 53 53 43 42 46 50 54 55 50 54 55 49 46 44 47 56 63 67
93 83 91 77 82 78 78 56 82 83 90 68 48 62 44 33 33 33 32 32 31 31 44 46 52 47 53 52 51 54 51 51 51 49 49 49 47 46 49 55 59 63 67 70
95 93 78 75 81 73 64 78 48 73 56 80 63 48 33 34 36 34 32 29 30 32 34 47 52 49 54 54 53 53 55 57 60 58 57 57 56 56 58 60 61 62 64 64
70 98 81 80 71 60 61 55 65 85 68 58 66 48 44 33 32 30 31 31 32 28 37 45 56 56 55 53 54 55 56 59 63 62 61 59 61 58 58 60 60 61 61 62
62 75 94 78 87 80 72 70 61 60 69 71 62 51 38 38 40 46 46 44 42 40 39 42 48 57 59 59 58 59 61 62 62 61 60 58 59 63 63 60 61 62 64 64
57 81 86 80 65 64 65 74 69 86 70 73 69 58 32 42 44 46 47 45 43 41 45 47 50 58 61 62 62 62 62 61 60 58 58 52 52 52 53 61 63 67 67 69
60 85 97 85 72 65 73 69 69 68 76 79 77 55 31 40 41 44 47 48 50 49 48 55 61 68 67 65 63 64 65 66 65 64 57 54 58 60 64 64 67 69 69 72
59 69 72 84 70 74 80 66 64 74 90 77 78 57 39 33 33 34 42 36 47 53 56 62 68 69 64 64 62 63 64 63 63 64 68 71 69 68 68 69 67 69 75 77
64 81 76 61 56 77 76 66 66 83 72 80 60 61 45 44 34 32 34 39 37 53 60 63 69 75 64 64 62 62 63 63 64 64 65 64 66 68 69 71 74 78 81 83
61 87 81 78 60 60 68 67 67 68 66 72 68 68 47 48 46 46 43 41 42 40 53 60 63 68 68 63 62 61 61 63 62 62 64 66 70 72 74 76 79 82 84 87
68 76 83 90 56 58 66 57 64 63 58 60 76 57 50 53 51 44 44 45 46 46 46 46 62 64 64 63 59 60 60 61 62 63 66 70 72 74 77 80 84 88 89 91
62 66 76 89 69 88 53 39 41 56 54 54 54 51 49 47 45 49 56 54 57 56 52 49 50 59 58 57 58 57 59 62 64 66 68 71 72 76 80 84 88 91 92 93
54 64 75 84 85 65 48 46 48 48 52 50 41 54 54 54 51 54 57 56 57 62 63 56 42 40 53 55 55 56 62 63 65 68 70 73 75 78 84 88 92 97 98 97
57 64 78 86 86 82 50 49 43 46 63 53 54 60 60 59 80 72 58 63 65 63 60 61 57 49 44 55 57 61 67 67 68 68 70 72 74 77 84 88 93 99 99 96
80 77 86 83 92 79 56 47 43 54 52 46 50 53 55 69 71 58 58 64 64 65 63 60 62 65 58 58 62 68 70 71 65 67 70 72 75 78 84 88 94 99 99 100
74 84 85 85 86 90 48 44 47 47 49 47 49 51 57 65 66 58 60 61 64 69 68 69 69 70 68 69 64 68 69 66 68 70 73 75 78 84 88 89 90 99 100 100
60 58 66 65 69 49 47 43 40 44 50 53 52 55 57 65 66 60 66 60 63 64 67 70 71 71 68 64 62 67 68 68 69 72 76 80 85 89 89 91 97 100 100 100
71 62 65 60 50 70 64 54 58 57 54 53 48 51 55 62 68 66 65 66 68 65 64 67 70 74 74 72 71 69 71 71 72 76 81 85 89 91 94 98 100 100 100 100
79 70 74 73 70 74 76 68 63 63 62 62 55 57 60 64 73 72 71 70 66 66 63 63 67 72 72 71 73 76 77 77 79 81 84 89 90 95 97 99 98 99 99 97
64 75 93 93 72 83 76 66 66 78 78 79 75 71 64 67 70 69 71 73 73 76 74 72 69 68 69 69 72 73 76 80 81 84 87 89 91 96 98 99 100 100 99 97
Wind_Speed
3 3 6 8 5 10 7 13 16 5 11 11 10 6 7 6 4 5 5 5 4 6 7 15 12 9 11 23 24 26 26 23 19 27 22 22 24 20 18 16 16 15 14 15
4 2 4 5 11 9 13 9 8 6 15 8 8 7 11 8 6 8 10 9 8 5 6 10 15 14 14 13 23 26 27 23 22 24 23 23 24 20 16 11 12 15 14 12
3 4 4 8 5 7 2 8 5 9 6 6 11 8 16 7 8 8 8 7 8 9 10 7 15 20 17 15 20 24 25 24 22 24 21 18 19 18 16 14 14 13 13 15
3 5 6 6 3 5 6 9 11 8 7 2 5 3 12 14 11 8 10 8 9 9 8 8 13 18 22 21 17 17 18 23 24 25 27 25 24 19 17 18 18 15 13 13
6 9 8 9 2 6 2 15 17 11 5 7 8 2 6 10 9 11 11 11 10 10 8 10 14 26 27 25 23 20 17 19 23 24 26 21 19 16 16 17 16 14 13 12
7 4 4 2 4 6 5 5 9 4 2 2 5 5 5 5 16 7 5 9 10 10 10 9 26 27 28 28 26 23 17 14 15 16 17 17 18 18 17 15 13 11 9 8
1 3 4 1 4 9 3 4 2 3 3 4 3 4 7 3 5 8 8 9 8 8 9 8 9 13 17 22 24 24 23 17 14 14 13 16 17 17 16 15 14 13 11 9
5 6 8 8 4 4 7 2 4 5 3 3 1 5 5 6 5 5 5 7 5 2 7 7 10 18 25 24 21 19 21 22 18 18 18 17 16 16 17 16 15 13 12 9
4 3 5 3 3 3 4 3 4 4 3 4 3 5 6 3 4 3 2 3 3 4 3 7 9 22 27 25 24 22 20 19 19 19 19 17 17 16 16 15 14 13 11 10
3 4 4 4 4 2 2 3 4 3 2 3 3 3 4 5 5 4 4 3 5 3 5 4 6 15 24 25 23 22 23 24 21 18 16 16 12 12 12 11 11 11 10 9
2 4 2 2 2 2 4 3 2 2 4 3 1 5 5 8 7 7 5 4 4 6 3 2 3 10 18 21 23 23 25 26 24 22 19 17 13 11 10 7 8 8 9 6
2 4 3 1 2 1 0 1 1 3 3 1 3 4 2 7 7 7 5 4 2 2 2 1 2 11 17 19 21 24 28 26 27 27 21 19 18 15 12 11 7 7 5 4
2 1 3 3 5 3 3 4 3 2 3 2 4 4 2 4 6 6 7 7 5 5 4 3 4 6 13 19 22 22 24 22 22 22 26 24 16 15 15 12 11 7 4 5
2 2 5 5 4 4 4 5 5 4 3 4 5 4 3 5 6 6 6 3 6 7 7 6 5 8 13 17 19 19 19 20 22 19 17 18 18 16 15 12 7 6 7 7
3 2 4 2 3 3 2 3 6 6 7 5 8 10 13 6 1 2 5 7 7 7 7 8 8 7 16 18 19 19 21 21 22 20 19 17 17 16 13 10 9 9 8 7
2 3 4 4 4 4 3 6 7 7 6 8 10 12 9 7 10 5 6 5 7 6 8 9 11 12 18 25 24 23 24 25 23 22 20 18 18 17 13 11 10 8 7 6
3 3 2 4 3 4 6 7 9 4 6 6 9 16 2 6 8 5 5 4 5 7 8 8 9 14 21 27 30 30 29 26 24 23 21 20 19 17 15 12 11 9 7 5
3 5 4 3 2 0 6 0 1 7 7 8 8 9 6 3 1 1 4 4 6 7 7 8 7 17 24 29 31 32 30 30 27 24 22 21 19 18 16 14 12 8 7 7
2 2 1 2 2 6 2 2 1 2 5 4 2 3 4 2 1 3 3 3 4 5 8 14 12 8 24 28 34 34 32 32 28 25 24 22 20 19 18 15 12 10 9 9
1 5 3 2 1 3 2 3 1 2 4 4 4 5 4 4 4 4 5 4 6 10 11 14 16 10 10 27 35 34 31 31 29 26 23 21 20 19 18 14 10 10 10 10
1 1 4 2 2 6 5 2 2 1 5 3 0 2 3 3 5 5 4 5 6 8 11 12 8 4 8 22 33 28 29 28 27 21 21 21 19 17 16 13 11 11 11 12
5 4 3 2 1 5 3 2 1 4 3 4 4 3 4 5 6 5 5 3 4 6 7 7 9 12 8 17 29 26 25 21 19 19 19 19 17 17 15 14 11 11 13 14
0 5 3 6 4 4 4 6 3 3 6 6 5 7 7 7 5 6 4 3 2 2 2 4 6 7 9 9 13 16 16 17 19 19 20 19 18 17 15 15 14 13 14 15
5 3 1 3 2 4 3 3 4 5 6 8 5 6 6 8 7 7 5 5 4 4 2 3 6 7 6 5 6 9 14 15 17 18 17 17 17 15 14 13 15 17 17 17
4 4 4 4 5 9 5 9 5 8 12 13 15 7 8 9 8 7 6 6 8 9 6 5 5 5 5 4 4 6 10 12 14 15 16 17 17 16 15 14 16 19 18 18
1 1 1 3 4 5 10 6 7 7 6 9 10 14 10 7 8 6 5 5 8 7 7 9 9 7 6 5 5 6 7 11 13 14 16 18 19 17 15 15 15 16 15 15
Wind_Direction
275 118 186 216 269 291 113 153 176 132 160 155 196 239 251 212 192 189 197 252 206 230 203 176 181 181 170 197 194 200 203 207 209 197 201 205 207 204 209 214 216 207 213 210
201 114 173 197 238 253 154 143 156 138 154 154 169 261 267 220 231 203 208 222 234 188 195 190 185 189 196 186 195 191 196 200 199 203 202 206 202 203 209 210 192 176 182 191
102 88 223 186 211 181 122 165 138 160 113 343 162 214 244 235 216 224 223 202 215 223 188 203 194 191 187 191 199 195 196 198 204 203 201 207 205 208 205 210 210 200 211 228
67 37 114 121 99 125 160 148 115 152 135 160 234 220 227 224 214 214 229 219 215 224 197 199 197 191 190 192 195 202 200 199 200 204 206 205 210 204 200 191 213 205 216 233
58 36 56 78 107 212 159 149 140 191 145 152 191 155 256 178 219 222 217 217 219 220 216 197 197 192 193 182 177 180 175 186 192 198 209 205 198 190 176 180 190 192 210 228
52 27 44 256 285 88 66 91 130 135 153 59 203 139 284 174 206 223 225 217 212 213 220 205 202 198 190 184 184 189 188 175 189 190 190 186 184 168 167 171 180 195 205 216
164 129 293 10 62 81 78 68 91 33 30 191 232 125 248 294 167 196 209 216 231 239 221 198 177 157 177 180 178 186 187 187 185 186 177 184 182 178 180 179 183 183 193 204
53 5 2 342 19 99 216 70 132 152 165 231 19 197 244 237 161 128 124 136 137 159 217 216 179 169 175 182 183 184 179 176 179 176 179 178 179 178 172 174 174 182 192 206
111 24 310 25 322 6 316 64 190 107 49 75 240 290 324 125 130 122 149 100 323 288 2 197 183 176 181 185 185 183 177 175 173 171 171 171 175 176 176 178 182 189 197 218
131 97 337 341 334 45 92 250 40 13 103 167 270 252 228 125 114 117 62 18 318 352 76 58 171 174 186 190 186 183 181 174 171 171 175 160 167 170 175 181 174 188 193 212
352 94 303 12 349 35 15 31 13 130 137 154 176 276 231 167 148 122 92 54 29 13 51 115 121 179 190 187 184 181 180 172 171 175 174 153 162 171 167 173 183 190 198 202
21 112 128 175 216 204 236 277 112 119 272 26 126 276 251 136 140 129 144 159 143 106 100 43 161 172 182 184 184 184 182 183 183 180 173 166 178 179 178 189 189 202 200 204
342 95 78 23 358 310 218 223 218 112 61 219 131 260 236 139 134 161 178 202 203 182 173 158 140 161 179 184 185 183 186 188 187 187 171 169 176 177 184 185 185 188 201 223
49 86 139 173 206 152 200 207 200 141 121 223 212 259 238 211 202 232 244 184 204 204 191 184 180 187 194 194 191 188 185 193 189 191 191 176 179 185 185 181 183 190 197 209
45 48 68 308 310 81 262 234 210 185 216 175 243 229 251 240 216 294 250 234 225 196 201 196 193 194 195 197 200 197 191 188 187 183 184 181 181 186 187 182 188 197 203 209
25 3 58 321 272 219 273 271 262 253 253 243 253 260 247 286 296 282 268 260 241 226 212 214 204 193 193 199 200 191 189 187 189 190 191 187 185 187 185 187 195 199 203 208
121 125 75 288 330 10 309 241 221 224 238 217 237 255 273 268 268 272 295 297 263 258 262 244 216 207 200 199 200 197 196 193 195 195 193 190 186 186 192 198 201 208 209 200
151 157 163 224 49 12 236 68 134 214 253 247 264 266 257 246 265 24 339 310 320 319 305 288 260 218 211 202 200 200 198 194 196 196 196 194 195 197 196 197 203 221 213 205
164 136 146 140 190 283 329 320 92 101 286 323 256 49 45 11 312 330 24 343 284 300 301 296 268 251 220 204 198 194 191 194 194 197 198 195 196 194 193 194 195 208 208 208
49 98 118 66 108 268 280 270 290 65 290 317 63 37 24 29 354 267 293 314 314 314 309 313 310 270 235 210 198 185 183 189 195 200 200 198 202 203 198 202 209 216 219 228
45 12 160 213 244 284 274 222 267 -0 252 267 211 285 281 228 209 244 273 300 304 309 319 320 331 317 260 204 184 171 181 187 198 197 196 197 199 205 205 212 215 220 222 223
166 148 203 132 175 283 204 312 186 232 283 311 299 265 274 260 270 267 246 267 306 320 341 28 57 53 88 161 172 170 180 187 185 188 192 195 196 197 199 208 216 216 219 213
265 181 186 174 212 246 240 224 265 256 259 273 271 261 251 267 263 277 238 209 234 290 356 53 83 75 74 115 159 163 175 177 176 182 188 187 188 194 203 206 211 216 214 215
351 16 149 21 289 11 35 11 17 9 334 318 302 293 284 264 256 259 217 192 189 196 184 134 111 103 100 113 143 169 169 174 180 184 187 187 193 202 209 218 222 217 215 213
228 13 319 273 325 333 322 331 303 325 326 334 321 301 280 275 267 239 215 201 188 179 168 162 147 141 139 145 149 169 186 192 194 195 193 197 206 208 211 223 223 221 230 229
283 80 59 278 327 304 290 299 317 352 327 323 321 311 298 258 247 233 214 201 188 193 174 160 155 150 162 165 186 190 204 209 204 204 206 208 209 214 217 221 229 234 240 240